| time (UTC) | temp C | wind direction | speed KPH | gust KPH | rain 1hr cm | rain 24hr cm | rain mn cm | humidity % | barometer mb |
| 20260505084134 | -17 | 346 | 0.0 | 0.0 | 0.00 | 0.00 | 0.00 | 1011.3 | |
| 20260505083631 | -17 | 336 | 0.0 | 0.0 | 0.00 | 0.00 | 0.00 | 1011.1 | |
| 20260505083127 | -17 | 339 | 0.0 | 0.0 | 0.00 | 0.00 | 0.00 | 1011.1 | |
| 20260505082623 | -17 | 335 | 0.0 | 0.0 | 0.00 | 0.00 | 0.00 | 1011.2 | |
| 20260505082120 | -17 | 339 | 0.0 | 0.0 | 0.00 | 0.00 | 0.00 | 1011.2 | |
| 20260505081616 | -17 | 335 | 0.0 | 0.0 | 0.00 | 0.00 | 0.00 | 1011.2 | |
| 20260505081114 | -17 | 336 | 0.0 | 0.0 | 0.00 | 0.00 | 0.00 | 1011.2 | |
| 20260505080610 | -17 | 338 | 0.0 | 1.6 | 0.00 | 0.00 | 0.00 | 1011.4 | |
| 20260505080107 | -17 | 337 | 0.0 | 0.0 | 0.00 | 0.00 | 0.00 | 1011.0 | |
| 20260505075603 | -17 | 340 | 0.0 | 0.0 | 0.00 | 0.00 | 0.00 | 1011.1 | |
| 20260505075059 | -17 | 335 | 0.0 | 0.0 | 0.00 | 0.00 | 0.00 | 1011.1 | |
| 20260505074556 | -17 | 336 | 0.0 | 0.0 | 0.00 | 0.00 | 0.00 | 1011.3 | |
| 20260505074054 | -17 | 336 | 0.0 | 0.0 | 0.00 | 0.00 | 0.00 | 1010.9 | |
| 20260505073551 | -17 | 338 | 0.0 | 0.0 | 0.00 | 0.00 | 0.00 | 1010.9 | |
| 20260505073049 | -17 | 332 | 0.0 | 0.0 | 0.00 | 0.00 | 0.00 | 1011.0 | |
| 20260505072544 | -17 | 340 | 0.0 | 0.0 | 0.00 | 0.00 | 0.00 | 1011.0 | |
| 20260505072041 | -17 | 341 | 0.0 | 0.0 | 0.00 | 0.00 | 0.00 | 1010.9 | |
| 20260505071536 | -17 | 332 | 0.0 | 1.6 | 0.00 | 0.00 | 0.00 | 1010.8 | |
| 20260505071035 | -17 | 338 | 0.0 | 1.6 | 0.00 | 0.00 | 0.00 | 1010.9 | |
| 20260505070532 | -17 | 330 | 0.0 | 1.6 | 0.00 | 0.00 | 0.00 | 1010.8 | |
| 20260505070027 | -17 | 333 | 0.0 | 0.0 | 0.00 | 0.00 | 0.00 | 1010.6 | |
| 20260505065524 | -17 | 333 | 0.0 | 1.6 | 0.00 | 0.00 | 0.00 | 1010.9 | |
| 20260505065020 | -17 | 336 | 0.0 | 1.6 | 0.00 | 0.00 | 0.00 | 1010.5 | |
| 20260505064517 | -17 | 339 | 0.0 | 1.6 | 0.00 | 0.00 | 0.00 | 1010.6 | |
| 20260505064016 | -17 | 337 | 0.0 | 1.6 | 0.00 | 0.00 | 0.00 | 1010.7 | |
| 20260505063513 | -17 | 288 | 0.0 | 0.0 | 0.00 | 0.00 | 0.00 | 1010.8 | |
| 20260505063008 | -17 | 338 | 0.0 | 0.0 | 0.00 | 0.00 | 0.00 | 1010.8 | |
| 20260505062505 | -17 | 333 | 0.0 | 0.0 | 0.00 | 0.00 | 0.00 | 1010.8 | |
| 20260505062002 | -17 | 347 | 0.0 | 0.0 | 0.00 | 0.00 | 0.00 | 1010.6 | |
| 20260505061500 | -17 | 344 | 0.0 | 0.0 | 0.00 | 0.00 | 0.00 | 1010.7 | |
| 20260505060957 | -17 | 338 | 0.0 | 0.0 | 0.00 | 0.00 | 0.00 | 1010.7 | |
| 20260505060455 | -17 | 334 | 0.0 | 0.0 | 0.00 | 0.00 | 0.00 | 1011.0 | |
| 20260505055951 | -17 | 339 | 0.0 | 0.0 | 0.00 | 0.00 | 0.00 | 1010.8 | |
| 20260505055447 | -17 | 333 | 0.0 | 0.0 | 0.00 | 0.00 | 0.00 | 1010.5 | |
| 20260505054944 | -17 | 334 | 0.0 | 0.0 | 0.00 | 0.00 | 0.00 | 1010.4 | |
| 20260505054441 | -17 | 339 | 0.0 | 0.0 | 0.00 | 0.00 | 0.00 | 1010.6 | |
| 20260505053939 | -17 | 332 | 0.0 | 0.0 | 0.00 | 0.00 | 0.00 | 1010.4 | |
| 20260505053436 | -17 | 334 | 0.0 | 0.0 | 0.00 | 0.00 | 0.00 | 1010.7 | |
| 20260505052932 | -17 | 350 | 0.0 | 0.0 | 0.00 | 0.00 | 0.00 | 1010.7 | |
| 20260505052430 | -17 | 334 | 0.0 | 0.0 | 0.00 | 0.00 | 0.00 | 1010.5 | |
| 20260505051927 | -17 | 336 | 0.0 | 0.0 | 0.00 | 0.00 | 0.00 | 1010.6 | |
| 20260505051424 | -17 | 284 | 1.6 | 3.2 | 0.00 | 0.00 | 0.00 | 1010.5 | |
| 20260505050922 | -17 | 342 | 0.0 | 1.6 | 0.00 | 0.00 | 0.00 | 1010.5 | |
| 20260505050420 | -17 | 336 | 0.0 | 1.6 | 0.00 | 0.00 | 0.00 | 1010.5 | |
| 20260505041347 | -17 | 331 | 0.0 | 1.6 | 0.00 | 0.00 | 0.00 | 1010.4 | |
| 20260505040844 | -17 | 340 | 0.0 | 1.6 | 0.00 | 0.00 | 0.00 | 1010.3 | |
| 20260505040342 | -17 | 339 | 0.0 | 0.0 | 0.00 | 0.00 | 0.00 | 1010.2 | |
| 20260505035839 | -17 | 337 | 0.0 | 0.0 | 0.00 | 0.00 | 0.00 | 1010.3 | |
| 20260505035334 | -17 | 336 | 0.0 | 0.0 | 0.00 | 0.00 | 0.00 | 1010.1 | |
| 20260505034832 | -17 | 335 | 0.0 | 0.0 | 0.00 | 0.00 | 0.00 | 1010.2 | |
| 20260505034328 | -17 | 335 | 0.0 | 0.0 | 0.00 | 0.00 | 0.00 | 1010.0 | |
| 20260505033826 | -17 | 342 | 0.0 | 0.0 | 0.00 | 0.00 | 0.00 | 1010.2 | |
| 20260505033322 | -17 | 336 | 0.0 | 0.0 | 0.00 | 0.00 | 0.00 | 1010.1 | |
| 20260505032821 | -17 | 336 | 0.0 | 0.0 | 0.00 | 0.00 | 0.00 | 1010.3 | |
| 20260505032316 | -17 | 338 | 0.0 | 1.6 | 0.00 | 0.00 | 0.00 | 1009.9 | |
| 20260505031814 | -17 | 335 | 0.0 | 0.0 | 0.00 | 0.00 | 0.00 | 1010.2 | |
| 20260505031310 | -17 | 332 | 0.0 | 0.0 | 0.00 | 0.00 | 0.00 | 1009.9 | |
| 20260505030808 | -17 | 339 | 0.0 | 0.0 | 0.00 | 0.00 | 0.00 | 1009.7 | |
| 20260505030304 | -17 | 335 | 0.0 | 1.6 | 0.00 | 0.00 | 0.00 | 1009.9 | |
| 20260505025759 | -17 | 332 | 0.0 | 0.0 | 0.00 | 0.00 | 0.00 | 1010.0 | |
| 20260505025257 | -17 | 345 | 0.0 | 0.0 | 0.00 | 0.00 | 0.00 | 1009.9 | |
| 20260505024755 | -17 | 339 | 0.0 | 0.0 | 0.00 | 0.00 | 0.00 | 1009.8 | |
| 20260505024252 | -17 | 5 | 1.6 | 1.6 | 0.00 | 0.00 | 0.00 | 1009.9 | |
| 20260505023750 | -17 | 334 | 0.0 | 0.0 | 0.00 | 0.00 | 0.00 | 1010.0 | |
| 20260505023246 | -17 | 336 | 0.0 | 0.0 | 0.00 | 0.00 | 0.00 | 1009.9 | |
| 20260505022744 | -17 | 329 | 0.0 | 0.0 | 0.00 | 0.00 | 0.00 | 1010.0 | |
| 20260505022241 | -17 | 329 | 0.0 | 3.2 | 0.00 | 0.00 | 0.00 | 1010.0 | |
| 20260505021737 | -17 | 332 | 0.0 | 1.6 | 0.00 | 0.00 | 0.00 | 1010.0 | |
| 20260505021235 | -17 | 344 | 0.0 | 0.0 | 0.00 | 0.00 | 0.00 | 1010.0 | |
| 20260505020730 | -17 | 335 | 0.0 | 1.6 | 0.00 | 0.00 | 0.00 | 1010.0 | |
| 20260505020225 | -17 | 339 | 0.0 | 1.6 | 0.00 | 0.00 | 0.00 | 1009.8 | |
| 20260505015723 | -17 | 334 | 0.0 | 1.6 | 0.00 | 0.00 | 0.00 | 1010.0 | |
| 20260505015220 | -17 | 332 | 1.6 | 1.6 | 0.00 | 0.00 | 0.00 | 1010.1 | |
| 20260505014717 | -17 | 337 | 0.0 | 1.6 | 0.00 | 0.00 | 0.00 | 1010.1 | |
| 20260505014214 | -17 | 334 | 0.0 | 0.0 | 0.00 | 0.00 | 0.00 | 1010.2 | |
| 20260505013711 | -17 | 330 | 0.0 | 0.0 | 0.00 | 0.00 | 0.00 | 1010.1 | |
| 20260505013208 | -17 | 342 | 0.0 | 1.6 | 0.00 | 0.00 | 0.00 | 1010.3 | |
| 20260505012706 | -17 | 336 | 0.0 | 1.6 | 0.00 | 0.00 | 0.00 | 1010.4 | |
| 20260505012203 | -17 | 334 | 0.0 | 3.2 | 0.00 | 0.00 | 0.00 | 1010.3 | |
| 20260505011659 | -17 | 335 | 1.6 | 1.6 | 0.00 | 0.00 | 0.00 | 1010.4 | |
| 20260505011156 | -17 | 338 | 0.0 | 3.2 | 0.00 | 0.00 | 0.00 | 1010.4 | |
| 20260505010651 | -17 | 337 | 1.6 | 4.8 | 0.00 | 0.00 | 0.00 | 1010.5 | |
| 20260505010148 | -17 | 338 | 0.0 | 3.2 | 0.00 | 0.00 | 0.00 | 1010.4 | |
| 20260505005644 | -17 | 332 | 0.0 | 1.6 | 0.00 | 0.00 | 0.00 | 1010.6 | |
| 20260505005142 | -17 | 334 | 1.6 | 1.6 | 0.00 | 0.00 | 0.00 | 1010.6 | |
| 20260505004639 | -17 | 351 | 1.6 | 3.2 | 0.00 | 0.00 | 0.00 | 1010.5 | |
| 20260505004135 | -17 | 338 | 1.6 | 3.2 | 0.00 | 0.00 | 0.00 | 1010.5 | |
| 20260505003632 | -17 | 335 | 1.6 | 1.6 | 0.00 | 0.00 | 0.00 | 1010.5 | |
| 20260505003130 | -17 | 334 | 1.6 | 1.6 | 0.00 | 0.00 | 0.00 | 1010.4 | |
| 20260505002626 | -17 | 328 | 1.6 | 1.6 | 0.00 | 0.00 | 0.00 | 1010.5 | |
| 20260505002124 | -17 | 339 | 1.6 | 1.6 | 0.00 | 0.00 | 0.00 | 1010.6 | |
| 20260505001621 | -17 | 334 | 1.6 | 1.6 | 0.00 | 0.00 | 0.00 | 1010.6 | |
| 20260505001119 | -17 | 339 | 1.6 | 3.2 | 0.00 | 0.00 | 0.00 | 1010.4 | |
| 20260505000615 | -17 | 330 | 1.6 | 3.2 | 0.00 | 0.00 | 0.00 | 1010.6 | |
| 20260505000114 | -17 | 328 | 3.2 | 3.2 | 0.00 | 0.00 | 0.00 | 1010.5 | |
| 20260504235609 | -17 | 338 | 1.6 | 3.2 | 0.00 | 0.00 | 0.00 | 1010.3 | |
| 20260504235106 | -17 | 297 | 1.6 | 4.8 | 0.00 | 0.00 | 0.00 | 1010.5 | |
| 20260504234603 | -17 | 336 | 1.6 | 4.8 | 0.00 | 0.00 | 0.00 | 1010.5 | |
| 20260504234101 | -17 | 336 | 1.6 | 4.8 | 0.00 | 0.00 | 0.00 | 1010.4 | |
| 20260504233556 | -17 | 338 | 1.6 | 3.2 | 0.00 | 0.00 | 0.00 | 1010.8 | |
| 20260504233052 | -17 | 335 | 1.6 | 3.2 | 0.00 | 0.00 | 0.00 | 1010.6 | |
| 20260504232550 | -17 | 344 | 1.6 | 3.2 | 0.00 | 0.00 | 0.00 | 1010.4 | |
| 20260504232047 | -17 | 339 | 1.6 | 3.2 | 0.00 | 0.00 | 0.00 | 1010.4 | |
| 20260504231544 | -17 | 340 | 3.2 | 8.0 | 0.00 | 0.00 | 0.00 | 1010.5 | |
| 20260504231040 | -17 | 332 | 1.6 | 3.2 | 0.00 | 0.00 | 0.00 | 1010.5 | |
| 20260504230536 | -17 | 329 | 3.2 | 4.8 | 0.00 | 0.00 | 0.00 | 1010.4 | |
| 20260504230035 | -17 | 336 | 1.6 | 3.2 | 0.00 | 0.00 | 0.00 | 1010.5 | |
| 20260504225532 | -17 | 331 | 3.2 | 3.2 | 0.00 | 0.00 | 0.00 | 1010.6 | |
| 20260504225029 | -17 | 340 | 1.6 | 8.0 | 0.00 | 0.00 | 0.00 | 1010.6 | |
| 20260504224525 | -17 | 150 | 3.2 | 4.8 | 0.00 | 0.00 | 0.00 | 1010.6 | |
| 20260504224023 | -17 | 337 | 1.6 | 3.2 | 0.00 | 0.00 | 0.00 | 1010.7 | |
| 20260504223519 | -17 | 343 | 1.6 | 3.2 | 0.00 | 0.00 | 0.00 | 1010.6 | |
| 20260504223015 | -17 | 330 | 1.6 | 3.2 | 0.00 | 0.00 | 0.00 | 1010.6 | |
| 20260504222512 | -17 | 343 | 3.2 | 4.8 | 0.00 | 0.00 | 0.00 | 1010.8 | |
| 20260504222010 | -17 | 324 | 1.6 | 3.2 | 0.00 | 0.00 | 0.00 | 1010.7 | |
| 20260504221507 | -17 | 336 | 1.6 | 4.8 | 0.00 | 0.00 | 0.00 | 1010.8 | |
| 20260504221004 | -17 | 347 | 3.2 | 3.2 | 0.00 | 0.00 | 0.00 | 1010.7 | |
| 20260504220500 | -17 | 328 | 1.6 | 3.2 | 0.00 | 0.00 | 0.00 | 1010.7 | |
| 20260504215957 | -17 | 328 | 1.6 | 4.8 | 0.00 | 0.00 | 0.00 | 1010.8 | |
| 20260504215454 | -17 | 332 | 1.6 | 3.2 | 0.00 | 0.00 | 0.00 | 1011.0 | |
| 20260504214950 | -17 | 325 | 3.2 | 4.8 | 0.00 | 0.00 | 0.00 | 1010.8 | |
| 20260504214447 | -17 | 337 | 3.2 | 4.8 | 0.00 | 0.00 | 0.00 | 1010.7 | |
| 20260504213943 | -17 | 316 | 3.2 | 3.2 | 0.00 | 0.00 | 0.00 | 1010.9 | |
| 20260504213439 | -17 | 334 | 3.2 | 4.8 | 0.00 | 0.00 | 0.00 | 1010.9 | |
| 20260504212937 | -17 | 333 | 1.6 | 3.2 | 0.00 | 0.00 | 0.00 | 1010.9 | |
| 20260504212432 | -17 | 338 | 3.2 | 4.8 | 0.00 | 0.00 | 0.00 | 1011.0 | |
| 20260504211931 | -17 | 10 | 1.6 | 3.2 | 0.00 | 0.00 | 0.00 | 1010.9 | |
| 20260504211427 | -17 | 337 | 3.2 | 4.8 | 0.00 | 0.00 | 0.00 | 1010.9 | |
| 20260504210924 | -17 | 340 | 1.6 | 3.2 | 0.00 | 0.00 | 0.00 | 1011.0 | |
| 20260504210421 | -17 | 344 | 3.2 | 4.8 | 0.00 | 0.00 | 0.00 | 1011.0 | |
| 20260504205918 | -17 | 331 | 3.2 | 3.2 | 0.00 | 0.00 | 0.00 | 1011.1 | |
| 20260504205416 | -17 | 335 | 4.8 | 4.8 | 0.00 | 0.00 | 0.00 | 1010.9 | |
| 20260504204914 | -17 | 320 | 3.2 | 4.8 | 0.00 | 0.00 | 0.00 | 1010.8 | |
| 20260504204412 | -17 | 308 | 3.2 | 3.2 | 0.00 | 0.00 | 0.00 | 1011.0 | |
| 20260504203911 | -17 | 348 | 1.6 | 3.2 | 0.00 | 0.00 | 0.00 | 1010.8 | |
| 20260504203408 | -17 | 286 | 1.6 | 4.8 | 0.00 | 0.00 | 0.00 | 1010.8 | |
| 20260504202903 | -17 | 336 | 1.6 | 3.2 | 0.00 | 0.00 | 0.00 | 1010.9 | |
| 20260504202400 | -17 | 353 | 1.6 | 3.2 | 0.00 | 0.00 | 0.00 | 1010.9 | |
| 20260504201857 | -17 | 346 | 1.6 | 3.2 | 0.00 | 0.00 | 0.00 | 1010.7 | |
| 20260504201355 | -17 | 327 | 1.6 | 3.2 | 0.00 | 0.00 | 0.00 | 1010.9 | |
| 20260504200852 | -17 | 332 | 3.2 | 8.0 | 0.00 | 0.00 | 0.00 | 1010.7 | |
| 20260504200349 | -17 | 316 | 1.6 | 4.8 | 0.00 | 0.00 | 0.00 | 1011.0 | |
| 20260504195845 | -17 | 346 | 4.8 | 8.0 | 0.00 | 0.00 | 0.00 | 1010.8 | |
| 20260504195340 | -17 | 331 | 3.2 | 4.8 | 0.00 | 0.00 | 0.00 | 1010.9 | |
| 20260504194837 | -17 | 337 | 1.6 | 4.8 | 0.00 | 0.00 | 0.00 | 1010.9 | |
| 20260504194333 | -17 | 15 | 3.2 | 4.8 | 0.00 | 0.00 | 0.00 | 1010.8 | |
| 20260504193829 | -17 | 0 | 3.2 | 4.8 | 0.00 | 0.00 | 0.00 | 1010.9 | |
| 20260504193327 | -17 | 3 | 4.8 | 4.8 | 0.00 | 0.00 | 0.00 | 1010.9 | |
| 20260504192826 | -17 | 286 | 3.2 | 4.8 | 0.00 | 0.00 | 0.00 | 1010.9 | |
| 20260504192323 | -17 | 14 | 3.2 | 4.8 | 0.00 | 0.00 | 0.00 | 1010.9 | |
| 20260504191822 | -17 | 333 | 1.6 | 4.8 | 0.00 | 0.00 | 0.00 | 1010.8 | |
| 20260504191319 | -17 | 330 | 1.6 | 4.8 | 0.00 | 0.00 | 0.00 | 1011.0 | |
| 20260504190814 | -17 | 300 | 3.2 | 4.8 | 0.00 | 0.00 | 0.00 | 1011.1 | |
| 20260504190310 | -17 | 351 | 1.6 | 3.2 | 0.00 | 0.00 | 0.00 | 1010.9 | |
| 20260504185807 | -17 | 338 | 1.6 | 8.0 | 0.00 | 0.00 | 0.00 | 1011.0 | |
| 20260504185305 | -17 | 269 | 3.2 | 3.2 | 0.00 | 0.00 | 0.00 | 1010.9 | |
| 20260504184800 | -17 | 324 | 1.6 | 3.2 | 0.00 | 0.00 | 0.00 | 1010.9 | |
| 20260504184256 | -17 | 322 | 1.6 | 3.2 | 0.00 | 0.00 | 0.00 | 1011.1 | |
| 20260504183752 | -17 | 6 | 1.6 | 4.8 | 0.00 | 0.00 | 0.00 | 1011.0 | |
| 20260504183249 | -17 | 334 | 3.2 | 3.2 | 0.00 | 0.00 | 0.00 | 1010.8 | |
| 20260504182747 | -17 | 334 | 1.6 | 3.2 | 0.00 | 0.00 | 0.00 | 1010.9 | |
| 20260504182244 | -17 | 344 | 1.6 | 3.2 | 0.00 | 0.00 | 0.00 | 1010.8 | |
| 20260504181742 | -17 | 293 | 1.6 | 3.2 | 0.00 | 0.00 | 0.00 | 1010.6 | |
| 20260504181239 | -17 | 333 | 1.6 | 3.2 | 0.00 | 0.00 | 0.00 | 1010.7 | |
| 20260504180738 | -17 | 338 | 3.2 | 3.2 | 0.00 | 0.00 | 0.00 | 1010.8 | |
| 20260504180236 | -17 | 348 | 1.6 | 3.2 | 0.00 | 0.00 | 0.00 | 1010.6 | |
| 20260504175733 | -17 | 354 | 1.6 | 4.8 | 0.00 | 0.00 | 0.00 | 1010.9 | |
| 20260504175230 | -17 | 331 | 3.2 | 3.2 | 0.00 | 0.00 | 0.00 | 1010.7 | |
| 20260504174728 | -17 | 120 | 3.2 | 3.2 | 0.00 | 0.00 | 0.00 | 1011.0 | |
| 20260504174226 | -17 | 1 | 3.2 | 4.8 | 0.00 | 0.00 | 0.00 | 1010.8 | |
| 20260504173722 | -17 | 338 | 3.2 | 8.0 | 0.00 | 0.00 | 0.00 | 1010.9 | |
| 20260504173219 | -17 | 348 | 1.6 | 3.2 | 0.00 | 0.00 | 0.00 | 1010.6 | |
| 20260504172715 | -17 | 357 | 3.2 | 3.2 | 0.00 | 0.00 | 0.00 | 1010.7 | |
| 20260504172212 | -17 | 345 | 1.6 | 4.8 | 0.00 | 0.00 | 0.00 | 1010.5 | |
| 20260504171709 | -17 | 331 | 0.0 | 3.2 | 0.00 | 0.00 | 0.00 | 1010.7 | |
| 20260504171206 | -17 | 340 | 1.6 | 3.2 | 0.00 | 0.00 | 0.00 | 1010.5 | |
| 20260504170702 | -17 | 9 | 1.6 | 3.2 | 0.00 | 0.00 | 0.00 | 1010.5 | |
| 20260504170200 | -17 | 333 | 1.6 | 3.2 | 0.00 | 0.00 | 0.00 | 1010.7 | |
| 20260504160118 | -17 | 353 | 3.2 | 3.2 | 0.00 | 0.00 | 0.00 | 1010.3 | |
| 20260504151045 | -17 | 338 | 1.6 | 3.2 | 0.00 | 0.00 | 0.00 | 1009.9 | |
| 20260504150543 | -17 | 348 | 1.6 | 1.6 | 0.00 | 0.00 | 0.00 | 1010.0 | |
| 20260504141009 | -17 | 340 | 1.6 | 1.6 | 0.00 | 0.00 | 0.00 | 1009.4 | |
| 20260504140505 | -17 | 328 | 0.0 | 0.0 | 0.00 | 0.00 | 0.00 | 1009.5 | |
| 20260504130430 | -17 | 338 | 0.0 | 1.6 | 0.00 | 0.00 | 0.00 | 1009.0 | |
| 20260504110317 | -17 | 338 | 1.6 | 3.2 | 0.00 | 0.00 | 0.00 | 1008.3 | |
| 20260504100234 | -17 | 12 | 1.6 | 4.8 | 0.00 | 0.00 | 0.00 | 1008.1 |